Springfield, VT

1:10 PM EDT on July 26, 2017 (GMT -0400)
Hartness State

Weather History for KVSF - May, 2013

Change the Weather History Date:

Wednesday, May 8, 2013

  Actual Average Record
Temperature  
Mean Temperature 60 °F 53 °F  
Max Temperature 75 °F 65 °F 85 °F (2015)
Min Temperature 45 °F 41 °F 28 °F (2001)
Degree Days  
Heating Degree Days 6 12  
Month to date heating degree days 106  
Since 1 July heating degree days 7212  
Cooling Degree Days 0 0  
Month to date cooling degree days 0 0  
Year to date cooling degree days 0 2  
Growing Degree Days 9 (Base 50)    
Moisture  
Dew Point 56 °F    
Average Humidity 82    
Maximum Humidity 100    
Minimum Humidity 63    
Precipitation  
Precipitation 0.90 in 0.10 in 1.15 in (2012)
Month to date precipitation 0.90 0.80  
Year to date precipitation 7.87 13.33  
Sea Level Pressure  
Sea Level Pressure 30.12 in    
Wind  
Wind Speed 3 mph (ESE)    
Max Wind Speed 20 mph    
Max Gust Speed 30 mph    
Visibility 8 miles    
Events Rain    
T = Trace of Precipitation, MM = Missing Value Source: NWS Daily Summary

Daily Weather History Graph

Daily Weather History Graph

Search for Another Location

Airport or City:

Trip Planner

Search our weather history database for the weather conditions in past years. The results will help you decide how hot, cold, wet, or windy it might be!

Date:

Astronomy

May. 08, 2013 Rise Set
Actual Time 5:33 AM EDT 8:00 PM EDT
Civil Twilight 5:01 AM EDT 8:32 PM EDT
Nautical Twilight 4:21 AM EDT 9:12 PM EDT
Astronomical Twilight 3:36 AM EDT 9:57 PM EDT
Moon 4:42 AM EDT (5/8) 6:54 PM EDT (5/8)
Length of Visible Light 15h 30m
Length of Day
14h 26m
Waning Crescent, 2% of the Moon is Illuminated
May 8
Waning Crescent
May 9
New
May 18
First Quarter
May 25
Full
May 31
Last Quarter

Hourly Weather History & Observations

Time (EDT) Temp. Dew Point Humidity Pressure Visibility Wind Dir Wind Speed Gust Speed Precip Events Conditions
12:54 AM 51.1 °F 46.0 °F 83% 30.16 in 10.0 mi Calm Calm - N/A   Clear
1:54 AM 51.1 °F 46.9 °F 86% 30.15 in 10.0 mi Calm Calm - N/A   Clear
2:54 AM 48.9 °F 46.0 °F 90% 30.15 in 10.0 mi Calm Calm - N/A   Clear
3:54 AM 46.9 °F 46.0 °F 97% 30.15 in 10.0 mi Calm Calm - N/A   Clear
4:54 AM 46.9 °F 46.0 °F 97% 30.16 in 10.0 mi Calm Calm - N/A   Clear
5:54 AM 46.0 °F 45.0 °F 96% 30.18 in 10.0 mi Calm Calm - N/A   Clear
6:54 AM 48.9 °F 46.9 °F 93% 30.19 in 10.0 mi Calm Calm - N/A   Clear
7:42 AM 53.6 °F 48.2 °F 82% 30.20 in 10.0 mi Calm Calm - N/A   Mostly Cloudy
7:54 AM 55.9 °F 50.0 °F 80% 30.20 in 10.0 mi Calm Calm - N/A   Scattered Clouds
8:01 AM 57.2 °F 51.8 °F 82% 30.20 in 10.0 mi Calm Calm - N/A   Mostly Cloudy
8:11 AM 57.2 °F 51.8 °F 82% 30.20 in 10.0 mi Calm Calm - N/A   Partly Cloudy
8:54 AM 62.1 °F 53.1 °F 72% 30.21 in 10.0 mi Calm Calm - N/A   Scattered Clouds
9:54 AM 68.0 °F 55.0 °F 63% 30.18 in 10.0 mi East 5.8 mph - N/A   Clear
11:54 AM 64.0 °F 57.9 °F 80% 30.18 in 4.0 mi SSE 11.5 mph 25.3 mph 0.00 in Rain Light Rain
12:54 PM 72.0 °F 57.0 °F 59% 30.14 in 10.0 mi South 11.5 mph 16.1 mph 0.00 in   Mostly Cloudy
1:54 PM 70.0 °F 61.0 °F 73% 30.12 in 10.0 mi NNE 4.6 mph - 0.03 in   Overcast
2:54 PM 64.9 °F 59.0 °F 81% 30.12 in 10.0 mi Calm Calm - 0.03 in   Overcast
3:54 PM 68.0 °F 57.9 °F 70% 30.10 in 10.0 mi ESE 4.6 mph - N/A   Mostly Cloudy
4:54 PM 68.0 °F 57.9 °F 70% 30.09 in 10.0 mi NE 3.5 mph - N/A   Overcast
5:13 PM 64.4 °F 60.8 °F 88% 30.10 in 1.8 mi SSE 15.0 mph 25.3 mph 0.09 in Rain Heavy Rain
5:35 PM 62.6 °F 60.8 °F 94% 30.10 in 2.0 mi SE 4.6 mph - 0.26 in Rain Rain
5:42 PM 62.6 °F 60.8 °F 94% 30.09 in 9.0 mi Calm Calm - 0.26 in Rain Light Rain
5:54 PM 63.0 °F 60.1 °F 90% 30.09 in 10.0 mi Calm Calm - 0.26 in Rain Light Rain
6:54 PM 62.1 °F 60.1 °F 93% 30.08 in 10.0 mi Calm Calm - 0.02 in   Overcast
7:54 PM 62.1 °F 60.1 °F 93% 30.07 in 6.0 mi North 3.5 mph - 0.04 in Rain Light Rain
8:08 PM 60.8 °F 59.0 °F 94% 30.07 in 3.0 mi Calm Calm - 0.02 in Rain Light Rain
8:38 PM 60.8 °F 60.8 °F 100% 30.07 in 2.5 mi SW 5.8 mph - 0.11 in Rain Light Rain
8:46 PM 60.8 °F 60.8 °F 100% 30.07 in 6.0 mi Calm Calm - 0.12 in Rain Light Rain
8:54 PM 61.0 °F 59.0 °F 93% 30.07 in 10.0 mi Variable 4.6 mph - 0.12 in Rain Light Rain
9:15 PM 60.8 °F 60.8 °F 100% 30.07 in 6.0 mi Calm Calm - 0.02 in Rain Light Rain
9:30 PM 60.8 °F 60.8 °F 100% 30.07 in 10.0 mi Calm Calm - 0.03 in Rain Light Rain
9:54 PM 61.0 °F 60.1 °F 97% 30.07 in 10.0 mi Calm Calm - 0.04 in   Overcast
10:24 PM 60.8 °F 60.8 °F 100% 30.06 in 1.8 mi Calm Calm - 0.12 in Rain Heavy Rain
10:33 PM 60.8 °F 59.0 °F 94% 30.06 in 2.0 mi Calm Calm - 0.16 in Rain Heavy Rain
10:45 PM 60.8 °F 60.8 °F 100% 30.06 in 4.0 mi Calm Calm - 0.18 in Rain Light Rain
10:54 PM 61.0 °F 60.1 °F 97% 30.05 in 5.0 mi Calm Calm - 0.19 in Rain Light Rain
11:07 PM 60.8 °F 59.0 °F 94% 30.05 in 10.0 mi Calm Calm - 0.00 in   Overcast
11:54 PM 61.0 °F 59.0 °F 93% 30.04 in 4.0 mi SE 5.8 mph - 0.03 in Rain Rain